Weather History for KMVN - February, 2014

Change the Weather History Date:

Thursday, February 20, 2014

  Actual Average Record
Temperature  
Mean Temperature 50 °F -  
Max Temperature 64 °F 44 °F 69 °F (2011)
Min Temperature 37 °F 28 °F 0 °F (2015)
Degree Days  
Heating Degree Days 14    
Moisture  
Dew Point 38 °F    
Average Humidity 70    
Maximum Humidity 88    
Minimum Humidity 54    
Precipitation  
Precipitation 0.07 in - - ()
Sea Level Pressure  
Sea Level Pressure 29.63 in    
Wind  
Wind Speed 12 mph (South)    
Max Wind Speed 32 mph    
Max Gust Speed 48 mph    
Visibility 10 miles    
Events Thunderstorm    
Averages and records for this station are not official NWS values.
T = Trace of Precipitation, MM = Missing Value Source: NWS Daily Summary

Daily Weather History Graph

Daily Weather History Graph

Search for Another Location

Airport or City:

Trip Planner

Search our weather history database for the weather conditions in past years. The results will help you decide how hot, cold, wet, or windy it might be!

Date:

Astronomy

Feb. 20, 2014 Rise Set
Actual Time 6:39 AM CST 5:39 PM CST
Civil Twilight 6:12 AM CST 6:06 PM CST
Nautical Twilight 5:41 AM CST 6:36 PM CST
Astronomical Twilight 5:11 AM CST 7:07 PM CST
Moon 11:28 PM CST (2/20) 9:27 AM CST (2/20)
Length of Visible Light 11h 53m
Length of Day
10h 59m
Waning Gibbous, 70% of the Moon is Illuminated
Feb 20
Waning Gibbous
Feb 22
Last Quarter
Mar 1
New
Mar 8
First Quarter
Mar 16
Full

Hourly Weather History & Observations

Time (CST) Temp. Windchill Dew Point Humidity Pressure Visibility Wind Dir Wind Speed Gust Speed Precip Events Conditions
12:15 AM 44.6 °F 39.2 °F 35.6 °F 71% 29.84 in 10.0 mi East 10.4 mph - N/A   Overcast
12:35 AM 44.6 °F 41.4 °F 35.6 °F 71% 29.83 in 10.0 mi ESE 5.8 mph - N/A   Overcast
12:55 AM 44.6 °F 41.4 °F 35.6 °F 71% 29.83 in 10.0 mi East 5.8 mph - N/A   Overcast
1:15 AM 44.6 °F 42.2 °F 35.6 °F 71% 29.82 in 10.0 mi East 4.6 mph - N/A   Overcast
1:35 AM 44.6 °F 41.4 °F 35.6 °F 71% 29.81 in 10.0 mi East 5.8 mph - N/A   Overcast
1:55 AM 44.6 °F 43.1 °F 35.6 °F 71% 29.79 in 10.0 mi East 3.5 mph - N/A   Overcast
2:15 AM 44.6 °F 42.2 °F 35.6 °F 71% 29.77 in 10.0 mi East 4.6 mph - N/A   Overcast
2:35 AM 46.4 °F 42.4 °F 35.6 °F 66% 29.76 in 10.0 mi SE 8.1 mph - N/A   Mostly Cloudy
2:55 AM 46.4 °F 43.5 °F 35.6 °F 66% 29.75 in 10.0 mi ESE 5.8 mph - N/A   Mostly Cloudy
3:15 AM 46.4 °F 43.5 °F 35.6 °F 66% 29.74 in 10.0 mi SE 5.8 mph - N/A   Overcast
3:35 AM 46.4 °F 43.5 °F 35.6 °F 66% 29.71 in 10.0 mi ESE 5.8 mph - N/A   Overcast
3:55 AM 46.4 °F 43.5 °F 37.4 °F 71% 29.71 in 10.0 mi SE 5.8 mph - N/A   Scattered Clouds
4:15 AM 46.4 °F 45.2 °F 37.4 °F 71% 29.71 in 10.0 mi SE 3.5 mph - N/A   Mostly Cloudy
4:35 AM 46.4 °F 44.3 °F 37.4 °F 71% 29.71 in 10.0 mi SSE 4.6 mph - N/A   Overcast
4:55 AM 46.4 °F 44.3 °F 39.2 °F 76% 29.69 in 10.0 mi SE 4.6 mph - N/A   Overcast
5:15 AM 46.4 °F 43.5 °F 39.2 °F 76% 29.69 in 10.0 mi SE 5.8 mph - N/A   Overcast
5:35 AM 46.4 °F 43.5 °F 39.2 °F 76% 29.69 in 10.0 mi SSE 5.8 mph - N/A   Overcast
5:55 AM 46.4 °F 44.3 °F 41.0 °F 81% 29.68 in 10.0 mi SSE 4.6 mph - N/A   Overcast
6:15 AM 46.4 °F 43.5 °F 42.8 °F 87% 29.67 in 10.0 mi SSE 5.8 mph - N/A   Scattered Clouds
6:35 AM 48.2 °F - 42.8 °F 82% 29.65 in 10.0 mi SSE 8.1 mph - N/A   Mostly Cloudy
6:55 AM 50.0 °F - 46.4 °F 87% 29.65 in 10.0 mi SSE 11.5 mph - N/A   Overcast
7:15 AM 55.4 °F - 51.8 °F 88% 29.64 in 10.0 mi South 16.1 mph 21.9 mph N/A   Overcast
7:35 AM 57.2 °F - 53.6 °F 88% 29.65 in 10.0 mi South 19.6 mph 26.5 mph N/A   Mostly Cloudy
7:55 AM 59.0 °F - 53.6 °F 82% 29.65 in 10.0 mi South 19.6 mph - N/A   Mostly Cloudy
8:15 AM 59.0 °F - 53.6 °F 82% 29.64 in 10.0 mi South 18.4 mph 23.0 mph N/A   Mostly Cloudy
8:35 AM 59.0 °F - 53.6 °F 82% 29.64 in 10.0 mi South 19.6 mph 25.3 mph N/A   Overcast
8:55 AM - - - N/A% 29.63 in 10.0 mi South 15.0 mph 20.7 mph N/A   Overcast
9:15 AM - - - N/A% 29.62 in 10.0 mi South 19.6 mph 26.5 mph N/A   Overcast
9:35 AM - - - N/A% 29.62 in 10.0 mi South 18.4 mph 24.2 mph N/A   Overcast
9:55 AM - - - N/A% 29.61 in 10.0 mi South 17.3 mph 25.3 mph N/A   Overcast
10:15 AM - - - N/A% 29.60 in 10.0 mi South 21.9 mph 34.5 mph N/A   Overcast
10:35 AM - - - N/A% 29.59 in 5.0 mi South 21.9 mph 28.8 mph N/A   Overcast
10:55 AM - - - N/A% 29.60 in 8.0 mi South 21.9 mph 28.8 mph N/A   Overcast
11:15 AM - - - N/A% 29.59 in 9.0 mi South 15.0 mph - N/A   Overcast
11:35 AM - - - N/A% 29.58 in 7.0 mi South 16.1 mph 25.3 mph N/A   Overcast
11:55 AM - - - N/A% 29.56 in 3.0 mi South 15.0 mph 23.0 mph N/A   Overcast
12:15 PM - - - N/A% 29.53 in 4.0 mi South 15.0 mph 21.9 mph N/A   Overcast
12:35 PM - - - N/A% 29.52 in 7.0 mi South 19.6 mph 25.3 mph N/A   Overcast
12:55 PM - - - N/A% 29.50 in 10.0 mi South 19.6 mph 33.4 mph N/A   Overcast
1:15 PM - - - N/A% 29.49 in 10.0 mi South 20.7 mph 29.9 mph N/A   Overcast
1:35 PM - - - N/A% 29.49 in 10.0 mi South 17.3 mph 27.6 mph N/A   Overcast
1:55 PM - - - N/A% 29.46 in 10.0 mi South 20.7 mph 27.6 mph N/A   Overcast
2:15 PM - - - N/A% 29.46 in 10.0 mi South 23.0 mph 29.9 mph N/A   Overcast
2:35 PM - - - N/A% 29.46 in 10.0 mi South 21.9 mph 35.7 mph N/A   Overcast
2:55 PM - - - N/A% 29.44 in 10.0 mi South 21.9 mph 29.9 mph N/A   Mostly Cloudy
3:15 PM - - - N/A% 29.44 in 10.0 mi South 23.0 mph 31.1 mph N/A   Scattered Clouds
3:35 PM - - - N/A% 29.43 in 10.0 mi South 27.6 mph 39.1 mph N/A   Scattered Clouds
3:55 PM - - - N/A% 29.42 in 10.0 mi South 28.8 mph 41.4 mph N/A   Scattered Clouds
4:15 PM - - - N/A% 29.40 in 10.0 mi South 32.2 mph 39.1 mph N/A   Partly Cloudy
4:35 PM - - - N/A% 29.40 in 10.0 mi South 28.8 mph 42.6 mph N/A   Clear
4:55 PM - - - N/A% 29.39 in 10.0 mi South 26.5 mph 39.1 mph N/A   Clear
5:15 PM - - - N/A% 29.40 in 10.0 mi South 32.2 mph 41.4 mph N/A   Mostly Cloudy
5:35 PM 64.4 °F - 57.2 °F 77% 29.48 in 3.0 mi WSW 27.6 mph 48.3 mph 0.01 in   Mostly Cloudy
5:55 PM 60.8 °F - 48.2 °F 63% 29.52 in 5.0 mi West 16.1 mph 34.5 mph 0.07 in Thunderstorm Thunderstorm
6:15 PM 57.2 °F - 41.0 °F 55% 29.57 in 10.0 mi West 18.4 mph 31.1 mph N/A   Overcast
6:35 PM 53.6 °F - 37.4 °F 54% 29.61 in 10.0 mi West 21.9 mph 35.7 mph N/A   Scattered Clouds
6:55 PM 48.2 °F - 35.6 °F 62% 29.64 in 10.0 mi West 17.3 mph 34.5 mph N/A   Clear
7:15 PM 46.4 °F 39.8 °F 35.6 °F 66% 29.67 in 10.0 mi West 16.1 mph 28.8 mph N/A   Scattered Clouds
7:35 PM 46.4 °F 39.2 °F 33.8 °F 62% 29.69 in 10.0 mi West 18.4 mph 28.8 mph N/A   Mostly Cloudy
7:55 PM 44.6 °F 36.9 °F 30.2 °F 57% 29.69 in 10.0 mi West 18.4 mph 31.1 mph N/A   Partly Cloudy
8:15 PM 44.6 °F 37.2 °F 30.2 °F 57% 29.70 in 10.0 mi West 17.3 mph 28.8 mph N/A   Clear
8:35 PM 42.8 °F 34.8 °F 30.2 °F 61% 29.71 in 10.0 mi West 17.3 mph 25.3 mph N/A   Clear
8:55 PM 42.8 °F 35.4 °F 30.2 °F 61% 29.72 in 10.0 mi West 15.0 mph 27.6 mph N/A   Clear
9:15 PM 42.8 °F 36.2 °F 30.2 °F 61% 29.73 in 10.0 mi West 12.7 mph 25.3 mph N/A   Clear
9:35 PM 42.8 °F 36.6 °F 30.2 °F 61% 29.73 in 10.0 mi West 11.5 mph 20.7 mph N/A   Clear
9:55 PM 41.0 °F 34.7 °F 28.4 °F 61% 29.73 in 10.0 mi West 10.4 mph 20.7 mph N/A   Clear
10:15 PM 41.0 °F 35.2 °F 28.4 °F 61% 29.73 in 10.0 mi West 9.2 mph - N/A   Clear
10:35 PM 39.2 °F 33.0 °F 28.4 °F 65% 29.73 in 10.0 mi West 9.2 mph 16.1 mph N/A   Clear
10:55 PM 39.2 °F 33.0 °F 28.4 °F 65% 29.73 in 10.0 mi WSW 9.2 mph - N/A   Clear
11:15 PM 37.4 °F 30.3 °F 28.4 °F 70% 29.74 in 10.0 mi WSW 10.4 mph - N/A   Clear
11:35 PM 37.4 °F 30.8 °F 28.4 °F 70% 29.74 in 10.0 mi SW 9.2 mph - N/A   Clear
11:55 PM 37.4 °F 31.4 °F 28.4 °F 70% 29.73 in 10.0 mi SW 8.1 mph - N/A   Clear